High Desert Yearling Classic - South Hills

Station: South Hills 10 Miles - T Race

Distance: 10 Miles

Release: 15-Apr-2018 08:30

Weather Release:    Arrival:

Wind at Release:     Wind at Arrival:

Temp at Release: °    Temp at Arrival: °

Lofts: 99

Birds: 446

Clocked: 445

Multiple Groups! No training Monday 4-16 We are getting Snow at the loft!!!
Drops Pos Breeder Pigeon Name Color Sex Ent Arrival Speed To Win Eligible
100 Jones Boys - UT 1180-AU17-SLI BB H 5 09:39:22.00 253.724 00:13:38 Yes
102 Warbird Loft - CO 7351-AU17-FH Bzxhiv BC H 4 09:39:24.00 253.602 00:13:40 Yes
103 Eagle Ridge Lofts - WY 17016-AU17-EAGL PNSP H 3 09:39:26.00 253.481 00:13:42 Yes
104 Thunder Birds/Rodriguez Breeding Loft - TX 17848-AU17-WIN Hit girl BB H 2 09:39:27.00 253.420 00:13:43 Yes
105 Adirondack Team - NY 12971-AU17-AA BC H 1 09:39:28.00 253.359 00:13:44 Yes
106 Hammon And Friends - AZ 0421-AU17-DWI BB H 3 09:39:30.00 253.237 00:13:46 Yes
106 P N W Challenge - ID 7092-AU17-PNWC "555-211" BB H 2 09:39:30.00 253.237 00:13:46 Yes
108 Spring Break Race - UT 16720-AU17-AA BB H 1 09:39:33.00 253.055 00:13:49 Yes
109 Warbird Loft - CO 7350-AU17-FH Bzxhiii BB H 5 09:39:36.00 252.874 00:13:52 Yes
109 Rangel/Flores/Fregos - UT 0175-AU17-WFA BC H 2 09:39:36.00 252.874 00:13:52 Yes
111 Dave Flanagan - OH 0570-AU17-HOF BB H 1 09:39:43.00 252.450 00:13:59 Yes
112 Bert Bruno - UT 79329-AU17-ARPU BCSP H 4 09:39:45.00 252.330 00:14:01 Yes
113 Marian Taloi - OR 0476-AU17-OTC BC H 5 09:39:56.00 251.668 00:14:12 Yes
114 Bieche-Stevenson - CA 7577-AU17-BIEC DC H 1 09:39:57.00 251.608 00:14:13 Yes
115 Rich Fox Loft - PA 0827-IF17-LVC BC H 2 09:40:02.00 251.309 00:14:18 Yes
116 Dave Flanagan - OH 0568-AU17-HOF BCWF H 2 09:40:23.00 250.059 00:14:39 Yes
117 F & D Lofts - AB 17253-AU17-FD BC H 2 09:43:40.00 238.914 00:17:56 Yes
118 E M C Syndicate - LA 7232-AU17-CENL BCWF H 2 09:46:10.00 231.072 00:20:26 Yes
119 D & L Lofts - BC 1232-CU17-MTNP BB H 3 09:46:11.00 231.022 00:20:27 Yes
120 Fly & Criddle - ID 6656-AU17-FOYS 554/1668 MLY C 3 09:46:13.00 230.921 00:20:29 Yes
121 Silver Dollar Loft - CO 0098-AU17-SD BB H 5 09:46:15.00 230.820 00:20:31 Yes
122 Huan Qiu Zhang - NC 1747-IF17-JNC BBSP H 2 09:46:17.00 230.719 00:20:33 Yes
122 Rebel Wings - UT 0372-AU17-DWI BB H 2 09:46:17.00 230.719 00:20:33 Yes
124 F & D Lofts - AB 17242-AU17-FD BC H 3 09:46:19.00 230.618 00:20:35 Yes
125 Warbird Loft - CO 7348-AU17-FH Boxxwhii BB H 6 09:46:20.00 230.568 00:20:36 Yes
126 Spring Break Race - UT 11348-US17-IPB BB H 2 09:46:21.00 230.517 00:20:37 Yes
126 Western Loft - CA 2387-AU17-FCLM BB H 1 09:46:21.00 230.517 00:20:37 Yes
128 Ed Kehl - UT 0383-AU17-WFA BB H 3 09:46:22.00 230.467 00:20:38 Yes
129 Western Loft - CA 8380-AU17-RMCL BB H 2 09:46:23.00 230.417 00:20:39 Yes
129 Frank Locante - WI 17030-AU17-FRLO BB H 3 09:46:23.00 230.417 00:20:39 Yes
131 Bob Lehman - PA 0835-IF17-PGC BB H 1 09:46:26.00 230.266 00:20:42 Yes
132 Steve Beier - AZ 0716-AU17-IDA BB H 1 09:46:27.00 230.216 00:20:43 Yes
133 Dudley Loft - CO 17043-AU17-PUE BBPN H 1 09:46:30.00 230.065 00:20:46 Yes
134 Flyhome Loft - CA 26352-AU17-ARPU BB H 3 09:46:32.00 229.965 00:20:48 Yes
135 Steve Beier - AZ 0717-AU17-IDA BB H 2 09:46:33.00 229.915 00:20:49 Yes
136 Slick Hills Loft - UT 46139-AU17-ARPU RC C 2 09:46:35.00 229.815 00:20:51 Yes
137 High Plains Drifter Loft - CO 0028-AU17-HPDL DC H 2 09:46:38.00 229.665 00:20:54 Yes
138 Venn Family Loft - WY 87133-AU17-ARPU BB H 2 09:46:40.00 229.565 00:20:56 Yes
139 Twin Loft & Joe - MD 43397-AU17-AA BCPD H 1 09:46:41.00 229.515 00:20:57 Yes
140 Mc Laughlin Lofts - MA 1248-AU17-MCLO BB H 4 09:46:42.00 229.465 00:20:58 Yes
141 Sam Haslem - UT 7806-AU17-CDR BB H 3 09:46:51.00 229.018 00:21:07 Yes
142 Ganus Family Loft - IN 0936-AU17-GFL BB H 4 09:46:54.00 228.869 00:21:10 Yes
142 Warbird Loft - CO 7326-AU17-FH 2wxkan BB H 7 09:46:54.00 228.869 00:21:10 Yes
144 El Dorado Lofts Canada - BC 1196-CU17-MTNP RC H 1 09:46:55.00 228.819 00:21:11 Yes
145 Pigeon Village - ID 0881-AU17-IDA BC H 1 09:46:56.00 228.769 00:21:12 Yes
146 Rory Smith - UT 7381-AU17-CDR BBWF H 2 09:46:57.00 228.720 00:21:13 Yes
147 Rory Smith - UT 7373-AU17-CDR BC H 3 09:47:00.00 228.571 00:21:16 Yes
148 Slick Hills Loft - UT 46135-AU17-ARPU BC H 3 09:47:02.00 228.473 00:21:18 Yes
149 Hollywood Lou Loft - FL 0078-AU17-HL BB H 1 09:47:10.00 228.078 00:21:26 Yes
150 Arnel Vega-Centmeyer - CA 1823-AU17-ARN RC H 1 09:47:14.00 227.881 00:21:30 Yes
151 Liab Family Loft - MN 0486-AU17-LIAB Kronick BC H 1 09:47:17.00 227.733 00:21:33 Yes
152 Arnel Vega-Centmeyer - CA 1821-AU17-ARN RC H 2 09:47:18.00 227.684 00:21:34 Yes
153 Silver Dollar Loft - CO 0080-AU17-SD BB H 6 09:47:19.00 227.635 00:21:35 Yes
154 Almosta Loft - WA 47999-AU17-AA BB H 2 09:47:20.00 227.586 00:21:36 Yes
155 Scott / Morrison - UT 1113-AU17-WING BB H 1 09:47:24.00 227.390 00:21:40 Yes
155 Slick Hills Loft - UT 46138-AU17-ARPU BB H 4 09:47:24.00 227.390 00:21:40 Yes
157 Marian Taloi - OR 11067-AU17-JEDD BB H 6 09:47:26.00 227.292 00:21:42 Yes
158 Michael Kelly - CA 1729-AU17-ARC DC H 2 09:47:29.00 227.146 00:21:45 Yes
159 Scott/Carol Team - UT 0374-AU17-DWI BB H 1 09:47:30.00 227.097 00:21:46 Yes
160 Bert Bruno - UT 36377-AU17-JEDD BB H 5 09:47:32.00 226.999 00:21:48 Yes
161 Aimhigh Loft - CA 0041-AU17-FMT AIM-0041 BBTC H 3 09:47:33.00 226.950 00:21:49 Yes
162 Doug Donner - CO 13420-AU17-ARPU BC H 1 09:47:36.00 226.804 00:21:52 Yes
163 Haack Loft - CA 1371-AU17-GHC BBWF H 2 09:47:39.00 226.658 00:21:55 Yes
164 3 Stars & A Sun Loft - TX 0773-AU17-LS BB H 1 09:47:52.00 226.027 00:22:08 Yes
165 P N W Challenge - ID 7093-AU17-PNWC B1501-Z449" BC H 3 09:47:55.00 225.882 00:22:11 Yes
166 P N W Challenge - ID 7097-AU17-PNWC "91150-24991" BC H 4 09:47:57.00 225.786 00:22:13 Yes
167 Slick Hills Loft - UT 46136-AU17-ARPU BCWF H 5 09:48:00.00 225.641 00:22:16 Yes
167 Powerstroke Loft - UT 0181-IF17-PS BB H 1 09:48:00.00 225.641 00:22:16 Yes
169 Hammon And Friends - AZ 0598-AU17-DWI BB H 4 09:48:04.00 225.448 00:22:20 Yes
170 Mike Beam - KS 8566-AU17-VK BC H 2 09:48:08.00 225.256 00:22:24 Yes
171 Steve Beier - AZ 0719-AU17-IDA BB H 3 09:48:13.00 225.016 00:22:29 Yes
172 Utaz Boys/ Jones - UT 0824-AU17-SLI BB H 2 09:48:24.00 224.490 00:22:40 Yes
173 Rangel/Flores/Fregos - UT 0173-AU17-WFA BCWF H 3 09:48:31.00 224.156 00:22:47 Yes
174 B S Syndicate - IL 0033-AU17-BEKO BB H 3 09:48:32.00 224.109 00:22:48 Yes
175 Silver Dollar Loft - CO 0095-AU17-SD BBWF H 7 09:48:33.00 224.061 00:22:49 Yes
176 Bob Lehman - PA 0827-IF17-PGC BB H 2 09:48:34.00 224.014 00:22:50 Yes
177 Papas Loft - ID 20337-AU17-ARPU BC H 2 09:48:35.00 223.966 00:22:51 Yes
178 Powerstroke Loft - UT 0179-IF17-PS BB H 2 09:48:37.00 223.871 00:22:53 Yes
179 Doug Donner - CO 13457-AU17-ARPU BB H 2 09:48:38.00 223.824 00:22:54 Yes
180 Baldwin & Tilson - NC 7178-AU17-TENT BBWF H 2 09:48:40.00 223.729 00:22:56 Yes
181 Racing Pigeon Mall - WA 0722-AU17-RPM BB H 3 09:48:42.00 223.634 00:22:58 Yes
182 Doug Donner - CO 13418-AU17-ARPU BB H 3 09:48:43.00 223.587 00:22:59 Yes
183 El Dorado Lofts Canada - BC 1192-CU17-MTNP BBWF H 2 09:48:50.00 223.256 00:23:06 Yes
184 Papas Loft - ID 20341-AU17-ARPU BB H 3 09:48:53.00 223.114 00:23:09 Yes
185 Sam Haslem - UT 7810-AU17-CDR BC H 4 09:48:55.00 223.020 00:23:11 Yes
186 Slick Hills Loft - UT 46141-AU17-ARPU BC H 6 09:49:00.00 222.785 00:23:16 Yes
187 Adirondack Team - NY 12999-AU17-AA DCWF H 2 09:49:10.00 222.316 00:23:26 Yes
187 King Of The Hill - AZ 0832-AU17-PSC BB H 1 09:49:10.00 222.316 00:23:26 Yes
189 Scott/Carol Team - UT 0358-AU17-DWI BB H 2 09:49:16.00 222.035 00:23:32 Yes
190 Hammon And Friends - AZ 0587-AU17-DWI BB H 5 09:49:17.00 221.989 00:23:33 Yes
191 Rodriguez Loft - TX 17689-AU17-WIN Big Winner BB H 1 09:49:20.00 221.849 00:23:36 Yes
192 Ganus Family Loft - IN 0909-AU17-GFL BB H 5 09:49:23.00 221.709 00:23:39 Yes
193 Scott / Morrison - UT 1114-AU17-WING BB H 2 09:49:24.00 221.662 00:23:40 Yes
194 Racing Pigeon Mall - WA 0726-AU17-RPM BB H 4 09:49:25.00 221.616 00:23:41 Yes
195 K/N Loft - HI 40467-AU17-AA BB H 1 09:49:31.00 221.337 00:23:47 Yes
196 Lucky Luke - ID 29396-AU17-FOYS BC H 3 09:49:33.00 221.245 00:23:49 Yes
196 Bert Bruno - UT 79331-AU17-ARPU BCWF H 6 09:49:33.00 221.245 00:23:49 Yes
198 F & D Lofts - AB 17243-AU17-FD BC H 4 09:49:42.00 220.828 00:23:58 Yes
199 House Of Paine - CA 0265-AU17-GSF BBPD H 2 09:53:45.00 210.149 00:28:01 Yes
200 Fly & Criddle - ID 6665-AU17-FOYS 155/1522 BB H 4 09:54:35.00 208.079 00:28:51 Yes

There are 527 bird records

Note: These Race Results are unofficial and subject to change until verified by the Race Committee and declared final.

Click for forecast!